Time,TemperatureF,DewpointF,PressureIn,WindDirection,WindDirectionDegrees,WindSpeedMPH,WindSpeedGustMPH,Humidity,HourlyPrecipIn,Conditions,Clouds,dailyrainin,SoftwareType,DateUTC
2013-01-26 00:02:00,19.0,11.0,30.21,NW,304,1.0,5.0,69,0.00,,,0.02,,2013-01-26 06:02:00,
2013-01-26 00:12:00,19.0,11.0,30.21,NW,304,1.0,5.0,69,0.00,,,0.02,,2013-01-26 06:12:00,
2013-01-26 00:21:00,19.0,11.0,30.22,West,273,0.0,5.0,70,0.00,,,0.02,,2013-01-26 06:21:00,
2013-01-26 00:32:00,18.0,11.0,30.23,North,350,2.0,4.0,72,0.00,,,0.02,,2013-01-26 06:32:00,
2013-01-26 00:41:00,18.0,11.0,30.23,North,350,2.0,4.0,72,0.00,,,0.02,,2013-01-26 06:41:00,
2013-01-26 00:51:00,18.0,11.0,30.23,NW,322,1.0,7.0,72,0.00,,,0.02,,2013-01-26 06:51:00,
2013-01-26 01:02:00,18.0,11.0,30.23,NW,325,2.0,5.0,72,0.00,,,0.02,,2013-01-26 07:02:00,
2013-01-26 01:12:00,18.0,11.0,30.23,NW,325,2.0,5.0,72,0.00,,,0.02,,2013-01-26 07:12:00,
2013-01-26 01:21:00,18.0,11.0,30.23,NW,325,2.0,5.0,72,0.00,,,0.02,,2013-01-26 07:21:00,
2013-01-26 01:33:00,18.0,10.0,30.23,NW,319,3.0,7.0,71,0.00,,,0.02,,2013-01-26 07:33:00,
2013-01-26 01:42:00,18.0,10.0,30.23,NW,319,3.0,7.0,71,0.00,,,0.02,,2013-01-26 07:42:00,
2013-01-26 01:52:00,18.0,11.0,30.24,NW,323,2.0,6.0,72,0.00,,,0.02,,2013-01-26 07:52:00,
2013-01-26 02:02:00,18.0,11.0,30.25,NW,309,1.0,6.0,72,0.00,,,0.02,,2013-01-26 08:02:00,
2013-01-26 02:11:00,18.0,11.0,30.25,NW,309,1.0,6.0,72,0.00,,,0.02,,2013-01-26 08:11:00,
2013-01-26 02:21:00,17.0,10.0,30.25,NNW,341,1.0,5.0,73,0.00,,,0.02,,2013-01-26 08:21:00,
2013-01-26 02:32:00,17.0,10.0,30.26,North,351,1.0,5.0,74,0.00,,,0.02,,2013-01-26 08:32:00,
2013-01-26 02:42:00,17.0,10.0,30.26,North,351,1.0,5.0,74,0.00,,,0.02,,2013-01-26 08:42:00,
2013-01-26 02:53:00,16.0,9.0,30.26,NNW,344,1.0,4.0,75,0.00,,,0.02,,2013-01-26 08:53:00,
2013-01-26 03:02:00,16.0,9.0,30.26,NW,319,1.0,5.0,75,0.00,,,0.02,,2013-01-26 09:02:00,
2013-01-26 03:11:00,16.0,9.0,30.26,NW,319,1.0,5.0,75,0.00,,,0.02,,2013-01-26 09:11:00,
2013-01-26 03:22:00,16.0,9.0,30.27,NNW,334,0.0,6.0,75,0.00,,,0.02,,2013-01-26 09:22:00,
2013-01-26 03:32:00,16.0,10.0,30.27,NW,323,1.0,4.0,76,0.00,,,0.02,,2013-01-26 09:32:00,
2013-01-26 03:42:00,16.0,10.0,30.27,NW,323,1.0,4.0,76,0.00,,,0.02,,2013-01-26 09:42:00,
2013-01-26 03:51:00,15.0,9.0,30.27,North,355,2.0,5.0,76,0.00,,,0.02,,2013-01-26 09:51:00,
2013-01-26 04:01:00,15.0,9.0,30.28,NW,325,0.0,4.0,76,0.00,,,0.02,,2013-01-26 10:01:00,
2013-01-26 04:12:00,15.0,9.0,30.28,NW,325,0.0,4.0,76,0.00,,,0.02,,2013-01-26 10:12:00,
2013-01-26 04:21:00,15.0,9.0,30.29,WNW,298,1.0,3.0,77,0.00,,,0.02,,2013-01-26 10:21:00,
2013-01-26 04:32:00,15.0,9.0,30.29,NNW,329,0.0,3.0,77,0.00,,,0.02,,2013-01-26 10:32:00,
2013-01-26 04:42:00,15.0,9.0,30.29,NNW,329,0.0,3.0,77,0.00,,,0.02,,2013-01-26 10:42:00,
2013-01-26 04:52:00,14.0,8.0,30.29,North,11,0.0,2.0,78,0.00,,,0.02,,2013-01-26 10:52:00,
2013-01-26 05:01:00,14.0,8.0,30.29,West,273,1.0,4.0,78,0.00,,,0.02,,2013-01-26 11:01:00,
2013-01-26 05:12:00,14.0,8.0,30.29,West,273,1.0,4.0,78,0.00,,,0.02,,2013-01-26 11:12:00,
2013-01-26 05:22:00,14.0,8.0,30.30,NNE,21,3.0,6.0,77,0.00,,,0.02,,2013-01-26 11:22:00,
2013-01-26 05:32:00,14.0,8.0,30.31,NNW,343,2.0,7.0,76,0.00,,,0.02,,2013-01-26 11:32:00,
2013-01-26 05:42:00,14.0,8.0,30.31,NNW,343,2.0,7.0,76,0.00,,,0.02,,2013-01-26 11:42:00,
2013-01-26 05:52:00,14.0,8.0,30.32,North,355,2.0,6.0,77,0.00,,,0.02,,2013-01-26 11:52:00,
2013-01-26 06:02:00,13.0,7.0,30.33,NW,318,0.0,2.0,77,0.00,,,0.02,,2013-01-26 12:02:00,
2013-01-26 06:12:00,13.0,7.0,30.33,NW,318,0.0,2.0,77,0.00,,,0.02,,2013-01-26 12:12:00,
2013-01-26 06:22:00,13.0,7.0,30.34,NW,318,0.0,0.0,78,0.00,,,0.02,,2013-01-26 12:22:00,
2013-01-26 06:33:00,12.0,7.0,30.35,NW,318,0.0,0.0,80,0.00,,,0.02,,2013-01-26 12:33:00,
2013-01-26 06:42:00,12.0,7.0,30.35,NW,318,0.0,0.0,80,0.00,,,0.02,,2013-01-26 12:42:00,
2013-01-26 06:52:00,11.0,6.0,30.36,NW,318,0.0,0.0,81,0.00,,,0.02,,2013-01-26 12:52:00,
2013-01-26 07:03:00,10.0,6.0,30.37,NW,318,0.0,0.0,82,0.00,,,0.02,,2013-01-26 13:03:00,
2013-01-26 07:12:00,10.0,6.0,30.37,NW,318,0.0,0.0,82,0.00,,,0.02,,2013-01-26 13:12:00,
2013-01-26 07:22:00,9.0,5.0,30.37,NW,318,0.0,0.0,84,0.00,,,0.02,,2013-01-26 13:22:00,
2013-01-26 07:32:00,9.0,5.0,30.37,NW,318,0.0,0.0,85,0.00,,,0.02,,2013-01-26 13:32:00,
2013-01-26 07:42:00,9.0,5.0,30.37,NW,318,0.0,0.0,85,0.00,,,0.02,,2013-01-26 13:42:00,
2013-01-26 07:52:00,9.0,5.0,30.37,NW,318,0.0,0.0,85,0.00,,,0.02,,2013-01-26 13:52:00,
2013-01-26 08:03:00,9.0,6.0,30.38,NW,318,0.0,0.0,86,0.00,,,0.02,,2013-01-26 14:03:00,
2013-01-26 08:12:00,9.0,6.0,30.38,NW,318,0.0,0.0,86,0.00,,,0.02,,2013-01-26 14:12:00,
2013-01-26 08:22:00,10.0,7.0,30.39,NW,318,0.0,0.0,86,0.00,,,0.02,,2013-01-26 14:22:00,
2013-01-26 08:32:00,11.0,8.0,30.39,NNW,333,0.0,1.0,86,0.00,,,0.02,,2013-01-26 14:32:00,
2013-01-26 08:43:00,11.0,8.0,30.39,NNW,333,0.0,1.0,86,0.00,,,0.02,,2013-01-26 14:43:00,
2013-01-26 08:52:00,13.0,8.0,30.39,North,350,1.0,5.0,81,0.00,,,0.02,,2013-01-26 14:52:00,
2013-01-26 09:03:00,14.0,8.0,30.40,North,360,1.0,4.0,78,0.00,,,0.02,,2013-01-26 15:03:00,
2013-01-26 09:12:00,14.0,8.0,30.40,North,360,1.0,4.0,78,0.00,,,0.02,,2013-01-26 15:12:00,
2013-01-26 09:22:00,15.0,9.0,30.40,NNW,332,1.0,4.0,76,0.00,,,0.02,,2013-01-26 15:22:00,
2013-01-26 09:32:00,16.0,9.0,30.41,NNW,331,0.0,6.0,74,0.00,,,0.02,,2013-01-26 15:32:00,
2013-01-26 09:43:00,16.0,9.0,30.41,NNW,331,0.0,6.0,74,0.00,,,0.02,,2013-01-26 15:43:00,
2013-01-26 09:52:00,17.0,10.0,30.41,North,11,2.0,7.0,72,0.00,,,0.02,,2013-01-26 15:52:00,
2013-01-26 10:02:00,17.0,9.0,30.40,North,355,3.0,6.0,71,0.00,,,0.02,,2013-01-26 16:02:00,
2013-01-26 10:12:00,17.0,9.0,30.40,North,355,3.0,6.0,71,0.00,,,0.02,,2013-01-26 16:12:00,
2013-01-26 10:22:00,18.0,11.0,30.40,NNW,348,3.0,7.0,72,0.00,,,0.02,,2013-01-26 16:22:00,
2013-01-26 10:33:00,19.0,11.0,30.41,NE,38,3.0,7.0,70,0.00,,,0.02,,2013-01-26 16:33:00,
2013-01-26 10:42:00,19.0,11.0,30.41,NE,38,3.0,7.0,70,0.00,,,0.02,,2013-01-26 16:42:00,
2013-01-26 10:53:00,20.0,11.0,30.41,ENE,60,2.0,6.0,67,0.00,,,0.02,,2013-01-26 16:53:00,
2013-01-26 11:03:00,21.0,12.0,30.40,North,355,2.0,7.0,67,0.00,,,0.02,,2013-01-26 17:03:00,
2013-01-26 11:12:00,21.0,12.0,30.40,North,355,2.0,7.0,67,0.00,,,0.02,,2013-01-26 17:12:00,
2013-01-26 11:22:00,21.0,11.0,30.41,NW,319,1.0,7.0,66,0.00,,,0.02,,2013-01-26 17:22:00,
2013-01-26 11:33:00,22.0,11.0,30.41,NNW,330,2.0,5.0,62,0.00,,,0.02,,2013-01-26 17:33:00,
2013-01-26 11:42:00,22.0,11.0,30.41,NNW,330,2.0,5.0,62,0.00,,,0.02,,2013-01-26 17:42:00,
2013-01-26 11:52:00,23.0,12.0,30.41,NNW,341,0.0,4.0,62,0.00,,,0.02,,2013-01-26 17:52:00,
2013-01-26 12:02:00,24.0,12.0,30.41,North,349,1.0,5.0,59,0.00,,,0.02,,2013-01-26 18:02:00,
2013-01-26 12:12:00,24.0,12.0,30.41,North,349,1.0,5.0,59,0.00,,,0.02,,2013-01-26 18:12:00,
2013-01-26 12:22:00,25.0,12.0,30.40,East,82,0.0,3.0,56,0.00,,,0.02,,2013-01-26 18:22:00,
2013-01-26 12:33:00,24.0,10.0,30.35,North,5,4.0,6.0,55,0.00,,,0.02,,2013-01-26 18:33:00,
2013-01-26 12:42:00,24.0,10.0,30.35,North,5,4.0,6.0,55,0.00,,,0.02,,2013-01-26 18:42:00,
2013-01-26 12:52:00,25.0,11.0,30.36,North,5,2.0,5.0,54,0.00,,,0.02,,2013-01-26 18:52:00,
2013-01-26 13:03:00,26.0,11.0,30.34,SE,143,0.0,5.0,53,0.00,,,0.02,,2013-01-26 19:03:00,
2013-01-26 13:12:00,26.0,11.0,30.34,SE,143,0.0,5.0,53,0.00,,,0.02,,2013-01-26 19:12:00,
2013-01-26 13:22:00,26.0,11.0,30.36,NW,313,1.0,4.0,53,0.00,,,0.02,,2013-01-26 19:22:00,
2013-01-26 13:32:00,27.0,12.0,30.36,NE,40,2.0,4.0,53,0.00,,,0.00,,2013-01-26 19:32:00,
2013-01-26 13:42:00,27.0,12.0,30.36,NE,40,2.0,4.0,53,0.00,,,0.00,,2013-01-26 19:42:00,
2013-01-26 13:52:00,27.0,12.0,30.39,NNE,17,0.0,6.0,52,0.00,,,0.00,,2013-01-26 19:52:00,
2013-01-26 14:02:00,27.0,12.0,30.39,NNW,329,1.0,7.0,52,0.00,,,0.00,,2013-01-26 20:02:00,
2013-01-26 14:11:00,27.0,12.0,30.39,NNW,329,1.0,7.0,52,0.00,,,0.00,,2013-01-26 20:11:00,
2013-01-26 14:22:00,28.0,12.0,30.38,North,355,1.0,3.0,51,0.00,,,0.00,,2013-01-26 20:22:00,
2013-01-26 14:32:00,28.0,12.0,30.38,WNW,303,2.0,6.0,50,0.00,,,0.00,,2013-01-26 20:32:00,
2013-01-26 14:42:00,28.0,12.0,30.38,WNW,303,2.0,6.0,50,0.00,,,0.00,,2013-01-26 20:42:00,
2013-01-26 14:52:00,28.0,12.0,30.38,NE,45,1.0,3.0,50,0.00,,,0.00,,2013-01-26 20:52:00,
2013-01-26 15:02:00,29.0,13.0,30.37,ESE,109,0.0,3.0,50,0.00,,,0.00,,2013-01-26 21:02:00,
2013-01-26 15:12:00,29.0,13.0,30.37,ESE,109,0.0,3.0,50,0.00,,,0.00,,2013-01-26 21:12:00,
2013-01-26 15:22:00,29.0,12.0,30.37,SSE,165,0.0,3.0,49,0.00,,,0.00,,2013-01-26 21:22:00,
2013-01-26 15:32:00,30.0,13.0,30.37,SSW,196,0.0,3.0,48,0.00,,,0.00,,2013-01-26 21:32:00,
2013-01-26 15:42:00,30.0,13.0,30.37,SSW,196,0.0,3.0,48,0.00,,,0.00,,2013-01-26 21:42:00,
2013-01-26 15:51:00,30.0,12.0,30.37,SSW,206,1.0,3.0,46,0.00,,,0.00,,2013-01-26 21:51:00,
2013-01-26 16:01:00,30.0,12.0,30.37,SSW,192,0.0,4.0,47,0.00,,,0.00,,2013-01-26 22:01:00,
2013-01-26 16:11:00,30.0,12.0,30.37,SSW,192,0.0,4.0,47,0.00,,,0.00,,2013-01-26 22:11:00,
2013-01-26 16:22:00,29.0,12.0,30.38,SE,135,0.0,2.0,49,0.00,,,0.00,,2013-01-26 22:22:00,
2013-01-26 16:32:00,28.0,11.0,30.37,ESE,102,0.0,1.0,49,0.00,,,0.00,,2013-01-26 22:32:00,
2013-01-26 16:42:00,28.0,11.0,30.37,ESE,102,0.0,1.0,49,0.00,,,0.00,,2013-01-26 22:42:00,
2013-01-26 16:52:00,28.0,12.0,30.37,SE,143,0.0,2.0,50,0.00,,,0.00,,2013-01-26 22:52:00,
2013-01-26 17:01:00,28.0,13.0,30.36,East,92,1.0,5.0,52,0.00,,,0.00,,2013-01-26 23:01:00,
2013-01-26 17:12:00,28.0,13.0,30.36,East,92,1.0,5.0,52,0.00,,,0.00,,2013-01-26 23:12:00,
2013-01-26 17:22:00,28.0,13.0,30.37,ESE,116,0.0,2.0,52,0.00,,,0.00,,2013-01-26 23:22:00,
2013-01-26 17:32:00,27.0,13.0,30.38,SE,134,0.0,1.0,54,0.00,,,0.00,,2013-01-26 23:32:00,
2013-01-26 17:42:00,27.0,13.0,30.38,SE,134,0.0,1.0,54,0.00,,,0.00,,2013-01-26 23:42:00,
2013-01-26 17:52:00,27.0,13.0,30.38,SE,134,0.0,1.0,54,0.00,,,0.00,,2013-01-26 23:52:00,
2013-01-26 18:02:00,24.0,13.0,30.40,SE,134,0.0,0.0,63,0.00,,,0.00,,2013-01-27 00:02:00,
2013-01-26 18:11:00,24.0,13.0,30.40,SE,134,0.0,0.0,63,0.00,,,0.00,,2013-01-27 00:11:00,
2013-01-26 18:21:00,23.0,13.0,30.40,SE,134,0.0,0.0,65,0.00,,,0.00,,2013-01-27 00:21:00,
2013-01-26 18:32:00,23.0,15.0,30.40,SE,134,0.0,0.0,72,0.00,,,0.00,,2013-01-27 00:32:00,
2013-01-26 18:42:00,23.0,15.0,30.40,SE,134,0.0,0.0,72,0.00,,,0.00,,2013-01-27 00:42:00,
2013-01-26 18:51:00,23.0,15.0,30.38,SE,134,0.0,1.0,72,0.00,,,0.00,,2013-01-27 00:51:00,
2013-01-26 19:01:00,25.0,15.0,30.37,SSE,147,1.0,4.0,64,0.00,,,0.00,,2013-01-27 01:01:00,
2013-01-26 19:11:00,25.0,15.0,30.37,SSE,147,1.0,4.0,64,0.00,,,0.00,,2013-01-27 01:11:00,
2013-01-26 19:22:00,26.0,14.0,30.37,ESE,105,0.0,4.0,60,0.00,,,0.00,,2013-01-27 01:22:00,
2013-01-26 19:32:00,26.0,14.0,30.38,East,91,0.0,3.0,60,0.00,,,0.00,,2013-01-27 01:32:00,
2013-01-26 19:41:00,26.0,14.0,30.38,East,91,0.0,3.0,60,0.00,,,0.00,,2013-01-27 01:41:00,
2013-01-26 19:52:00,25.0,13.0,30.38,ESE,120,0.0,2.0,61,0.00,,,0.00,,2013-01-27 01:52:00,
2013-01-26 20:01:00,25.0,13.0,30.39,SE,138,0.0,3.0,61,0.00,,,0.00,,2013-01-27 02:01:00,
2013-01-26 20:11:00,25.0,13.0,30.39,SE,138,0.0,3.0,61,0.00,,,0.00,,2013-01-27 02:11:00,
2013-01-26 20:22:00,25.0,14.0,30.38,SE,135,0.0,3.0,63,0.00,,,0.00,,2013-01-27 02:22:00,
2013-01-26 20:32:00,25.0,14.0,30.39,ESE,117,1.0,3.0,63,0.00,,,0.00,,2013-01-27 02:32:00,
2013-01-26 20:42:00,25.0,14.0,30.39,ESE,117,1.0,3.0,63,0.00,,,0.00,,2013-01-27 02:42:00,
2013-01-26 20:52:00,25.0,14.0,30.39,SSE,160,0.0,2.0,63,0.00,,,0.00,,2013-01-27 02:52:00,
2013-01-26 21:02:00,25.0,14.0,30.38,ESE,113,1.0,5.0,63,0.00,,,0.00,,2013-01-27 03:02:00,
2013-01-26 21:11:00,25.0,14.0,30.38,ESE,113,1.0,5.0,63,0.00,,,0.00,,2013-01-27 03:11:00,
2013-01-26 21:21:00,25.0,15.0,30.38,ESE,121,1.0,6.0,64,0.00,,,0.00,,2013-01-27 03:21:00,
2013-01-26 21:32:00,25.0,15.0,30.39,ESE,117,0.0,3.0,64,0.00,,,0.00,,2013-01-27 03:32:00,
2013-01-26 21:42:00,25.0,15.0,30.39,ESE,117,0.0,3.0,64,0.00,,,0.00,,2013-01-27 03:42:00,
2013-01-26 21:51:00,26.0,15.0,30.38,ESE,119,1.0,4.0,63,0.00,,,0.00,,2013-01-27 03:51:00,
2013-01-26 22:02:00,26.0,15.0,30.39,South,169,0.0,3.0,63,0.00,,,0.00,,2013-01-27 04:02:00,
2013-01-26 22:11:00,26.0,15.0,30.39,South,169,0.0,3.0,63,0.00,,,0.00,,2013-01-27 04:11:00,
2013-01-26 22:21:00,26.0,15.0,30.38,SE,141,1.0,6.0,62,0.00,,,0.00,,2013-01-27 04:21:00,
2013-01-26 22:32:00,26.0,15.0,30.38,ESE,119,0.0,3.0,63,0.00,,,0.00,,2013-01-27 04:32:00,
2013-01-26 22:41:00,26.0,15.0,30.38,ESE,119,0.0,3.0,63,0.00,,,0.00,,2013-01-27 04:41:00,
2013-01-26 22:51:00,26.0,15.0,30.38,West,263,0.0,5.0,63,0.00,,,0.00,,2013-01-27 04:51:00,
2013-01-26 23:03:00,26.0,15.0,30.38,SE,134,1.0,5.0,63,0.00,,,0.00,,2013-01-27 05:03:00,
2013-01-26 23:12:00,26.0,15.0,30.38,SE,134,1.0,5.0,63,0.00,,,0.00,,2013-01-27 05:12:00,
2013-01-26 23:22:00,26.0,15.0,30.38,South,183,1.0,5.0,63,0.00,,,0.00,,2013-01-27 05:22:00,
2013-01-26 23:32:00,26.0,15.0,30.39,South,174,0.0,4.0,62,0.00,,,0.00,,2013-01-27 05:32:00,
2013-01-26 23:41:00,26.0,15.0,30.39,South,174,0.0,4.0,62,0.00,,,0.00,,2013-01-27 05:41:00,
2013-01-26 23:52:00,26.0,15.0,30.39,SSW,213,0.0,5.0,62,0.00,,,0.00,,2013-01-27 05:52:00,